Total_Precipitation_Accumulation
2.19 2.37 2.29 2.18 2.16 2.14 2.53 2.93 3.16 2.94 2.75 2.62 2.36 2.24 2.35 2.49 2.56 2.19 2.01 2.16 2.06 1.90 1.75 1.65 1.65 1.75 1.93 2.08 2.18 2.29 2.46 2.76 3.05 3.22 3.49 3.89 4.35 4.80
2.34 2.38 2.30 2.22 2.32 2.24 2.38 2.70 2.98 3.18 2.95 2.44 2.27 2.16 2.17 1.99 2.11 1.84 1.87 2.06 1.92 1.75 1.67 1.63 1.62 1.63 1.65 1.68 1.73 1.77 1.83 1.93 2.09 2.24 2.36 2.60 2.91 3.34
2.51 2.50 2.54 2.64 2.60 2.48 2.58 2.68 2.87 3.16 3.07 2.51 2.40 2.40 2.26 2.02 1.96 1.84 1.78 1.87 1.88 1.96 1.78 1.66 1.55 1.46 1.45 1.47 1.51 1.59 1.66 1.72 1.78 1.86 1.95 2.04 2.08 2.23
2.67 2.93 2.81 2.86 2.80 2.64 2.77 2.72 2.80 3.13 3.02 2.71 2.70 2.70 2.63 2.38 2.20 1.99 1.76 1.74 1.86 2.09 1.83 1.67 1.59 1.51 1.47 1.45 1.44 1.43 1.46 1.52 1.57 1.59 1.62 1.65 1.70 1.80
2.68 2.76 2.81 3.03 2.90 2.79 2.70 2.67 2.76 2.94 3.09 2.83 2.75 2.94 2.79 2.49 2.34 2.05 1.83 1.92 1.67 1.80 1.77 1.70 1.67 1.60 1.53 1.45 1.44 1.42 1.39 1.38 1.41 1.48 1.55 1.63 1.65 1.62
2.61 2.52 2.62 2.88 2.95 2.94 2.72 2.70 2.84 2.97 3.04 2.93 2.81 2.95 2.98 2.86 2.66 2.41 2.29 2.11 1.89 1.73 1.79 1.70 1.68 1.63 1.55 1.43 1.42 1.42 1.43 1.41 1.36 1.32 1.31 1.33 1.36 1.39
2.37 2.26 2.26 2.52 2.75 2.83 2.56 2.57 2.73 2.76 2.79 2.83 2.81 2.90 2.97 3.11 2.93 2.61 2.37 2.21 1.97 1.77 1.77 1.63 1.62 1.54 1.55 1.56 1.54 1.44 1.29 1.27 1.24 1.20 1.18 1.17 1.16 1.16
2.36 2.26 2.14 2.11 2.12 2.28 2.40 2.52 2.67 2.66 2.68 2.87 3.03 3.09 3.09 3.14 3.12 2.90 2.61 2.35 2.10 1.85 1.94 1.91 1.84 1.79 1.63 1.49 1.53 1.44 1.31 1.25 1.21 1.13 1.10 1.09 1.11 1.10
2.23 2.23 1.93 1.74 1.86 1.78 2.01 2.20 2.30 2.39 2.47 2.70 2.87 2.95 3.08 3.21 3.29 3.01 2.83 2.62 2.33 2.08 2.10 1.93 1.84 1.83 1.74 1.67 1.74 1.52 1.41 1.33 1.25 1.21 1.16 1.08 1.05 1.06
1.96 1.99 1.92 1.79 1.80 1.93 1.93 1.85 1.79 1.87 2.08 2.12 2.25 2.55 2.80 3.02 3.21 3.11 3.03 2.72 2.37 2.12 2.08 1.90 1.73 1.72 1.72 1.76 1.82 1.66 1.49 1.37 1.23 1.16 1.14 1.08 1.03 1.04
1.81 1.83 1.85 1.74 1.92 1.90 1.85 1.82 1.80 1.80 1.89 2.00 2.01 2.18 2.43 2.61 2.78 2.89 2.86 2.71 2.43 2.20 2.18 2.15 1.91 1.85 1.82 1.69 1.64 1.69 1.54 1.41 1.30 1.21 1.14 1.11 1.13 1.13
1.83 1.83 1.84 1.73 1.76 1.69 1.64 1.74 1.71 1.73 1.84 1.85 1.83 1.83 1.93 2.26 2.66 2.52 2.56 2.64 2.40 2.08 1.87 2.00 2.00 2.05 1.95 1.63 1.44 1.40 1.39 1.44 1.45 1.35 1.28 1.24 1.31 1.20
1.94 1.86 1.85 1.82 1.53 1.49 1.49 1.53 1.57 1.62 1.74 1.67 1.57 1.56 1.65 1.82 2.13 2.25 2.25 2.26 2.23 1.95 1.74 1.80 1.78 1.88 1.82 1.59 1.39 1.30 1.27 1.25 1.23 1.28 1.35 1.38 1.37 1.28
1.91 1.90 1.92 1.85 1.55 1.43 1.31 1.30 1.37 1.33 1.33 1.41 1.42 1.43 1.51 1.63 1.80 1.98 2.08 2.16 2.10 1.94 1.89 1.93 1.80 1.75 1.71 1.53 1.34 1.24 1.27 1.29 1.27 1.22 1.25 1.52 1.53 1.48
1.76 1.91 1.80 1.68 1.48 1.27 1.22 1.21 1.21 1.14 1.21 1.34 1.39 1.40 1.42 1.50 1.74 2.04 2.22 2.34 2.30 2.00 1.89 1.92 1.92 1.88 1.87 1.66 1.42 1.26 1.23 1.22 1.23 1.29 1.32 1.44 1.51 1.51
1.62 1.68 1.67 1.65 1.57 1.40 1.28 1.19 1.12 1.17 1.25 1.30 1.40 1.54 1.67 1.75 1.83 1.94 2.12 2.20 2.24 2.02 1.84 1.85 1.84 1.92 1.84 1.62 1.56 1.41 1.24 1.18 1.17 1.28 1.39 1.46 1.57 1.60
1.56 1.55 1.59 1.70 1.74 1.70 1.62 1.51 1.45 1.46 1.44 1.41 1.54 1.65 1.64 1.65 1.67 1.81 2.00 2.05 1.94 1.78 1.68 1.66 1.79 1.84 1.81 1.75 1.61 1.37 1.22 1.14 1.14 1.28 1.50 1.57 1.55 1.53
1.53 1.59 1.71 1.77 1.82 1.83 1.82 1.71 1.58 1.46 1.40 1.44 1.51 1.59 1.64 1.66 1.67 1.80 1.93 1.96 1.82 1.70 1.72 1.61 1.68 1.88 1.89 1.68 1.45 1.36 1.29 1.19 1.17 1.33 1.45 1.52 1.51 1.42
1.28 1.42 1.59 1.65 1.72 1.74 1.75 1.68 1.61 1.56 1.56 1.61 1.68 1.72 1.76 1.75 1.75 1.77 1.87 1.92 1.83 1.70 1.66 1.66 1.63 1.73 1.74 1.44 1.14 1.12 1.29 1.33 1.39 1.47 1.52 1.50 1.44 1.33
1.08 1.22 1.37 1.53 1.64 1.75 1.81 1.78 1.76 1.75 1.72 1.68 1.73 1.75 1.81 1.86 1.82 1.76 1.81 1.90 1.87 1.80 1.73 1.67 1.61 1.57 1.58 1.51 1.31 1.16 1.21 1.38 1.52 1.54 1.51 1.55 1.52 1.49
1.09 1.13 1.23 1.42 1.65 1.80 1.90 1.98 2.00 1.94 1.79 1.74 1.75 1.78 1.78 1.87 1.86 1.80 1.83 1.97 1.97 1.88 1.70 1.49 1.43 1.61 1.73 1.89 1.70 1.27 1.16 1.26 1.39 1.51 1.58 1.66 1.62 1.59
1.12 1.15 1.23 1.35 1.54 1.74 1.84 1.85 1.87 1.81 1.76 1.73 1.70 1.76 1.81 1.83 1.80 1.79 1.82 1.91 1.88 1.81 1.67 1.58 1.70 1.91 2.00 1.94 1.65 1.41 1.32 1.30 1.39 1.49 1.51 1.52 1.50 1.44
1.27 1.20 1.19 1.26 1.40 1.54 1.63 1.68 1.73 1.71 1.67 1.68 1.68 1.72 1.80 1.85 1.89 1.88 1.84 1.88 1.90 1.91 1.98 1.94 1.91 1.92 1.92 1.88 1.77 1.60 1.46 1.42 1.48 1.55 1.42 1.36 1.27 1.19